Location: Palo Alto
(37.4420°N, 122.1420°W)
Time: 21:51:38
(UTC-07:00)

Daily predictions for brighter satellites

Satellite Brightness Start Highest point End
(mag) Time Altitude Azimuth Time Altitude Azimuth Time Altitude Azimuth
CZ-3C R/B 4.3 19:44:41 10° SW 20:40:48 32° S 20:50:18 10° SE
Okean 1-7 3.5 20:40:10 10° NNW 20:44:27 65° W 20:48:44 10° S
Meteor 2-10 Rocket 3.9 20:38:55 10° N 20:44:39 59° E 20:50:11 10° SSE
ISS -2.5 20:42:09 10° SSW 20:45:02 30° SE 20:47:57 10° ENE
USA 186 1.7 20:44:20 10° SSE 20:47:23 70° ENE 20:50:39 10° N
CZ-2D R/B 3.3 20:44:18 10° SSE 20:48:06 87° WSW 20:51:57 10° NNW
Cosmos 2263 Rocket 4.4 20:44:20 10° WSW 20:49:20 31° WNW 20:54:19 10° N
CENTAUR R/B 3.2 20:42:01 10° NNW 20:49:59 89° WSW 20:58:21 10° SSE
Cosmos 2181 Rocket 4.4 20:43:38 10° N 20:50:02 71° W 20:56:21 10° S
Cosmos 909 Rocket 4.4 20:44:31 10° SSW 20:50:57 84° WNW 20:58:39 10° NNE
Cosmos 2056 Rocket 3.5 20:51:53 10° SSW 20:57:03 89° ESE 21:02:12 10° NNE
SPOT 5 4.4 20:55:29 10° ESE 20:59:36 24° ENE 21:03:46 10° NNE
Cosmos 2074 Rocket 4.0 20:57:20 10° S 21:03:37 85° E 21:09:55 10° N
OAO 3 Rocket 4.5 21:00:28 10° SSW 21:04:20 23° SSE 21:08:11 10° ESE
Cosmos 1674 Rocket 3.8 21:00:54 10° N 21:05:15 50° E 21:09:33 10° SSE
SL-27 R/B 2.6 21:02:30 10° N 21:06:07 61° ENE 21:09:39 10° SSE
Resurs 01 Rocket 4.3 21:05:01 10° SW 21:08:04 18° W 21:11:09 10° NW
Cosmos 1606 3.7 21:06:26 10° NNE 21:09:57 31° ENE 21:12:55 13° SE
PSLV R/B 3.7 21:07:21 10° WNW 21:10:41 54° SSW 21:13:25 15° SE
Cosmos 1610 Rocket 4.5 21:07:13 10° S 21:13:17 69° E 21:19:29 10° NNE
Cosmos 1892 3.6 21:10:15 10° SSW 21:13:58 52° W 21:17:46 10° N
Sich 1 Rocket 3.7 21:10:48 10° S 21:15:18 60° E 21:19:49 10° NNE
Cosmos 1356 Rocket 4.5 21:11:54 10° SSW 21:16:00 50° W 21:20:13 10° N
CZ-4 DEB 3.0 21:16:51 10° S 21:19:59 68° WSW 21:23:09 10° NNW
GPS 2-05 Rocket1 3.2 21:17:25 10° WSW 21:21:01 50° SSE 21:23:46 15° E
Meteor 1-27 Rocket 3.9 21:15:52 10° N 21:21:16 51° ENE 21:26:03 13° SSE
Coronas F rocket 3.7 21:19:13 10° SW 21:21:29 25° W 21:23:47 10° NNW
ERBS 3.6 21:18:26 10° WNW 21:21:39 35° SW 21:24:35 11° SSE
Cosmos 1782 2.8 21:17:56 10° N 21:22:00 81° E 21:26:02 10° S
Nadezhda 3 Rocket 4.3 21:16:11 10° N 21:22:21 50° E 21:27:59 12° SSE
H-2A R/B 4.4 21:21:11 10° SSW 21:24:31 32° W 21:27:54 10° NNW
COSMOS 2487 3.9 21:21:41 10° N 21:24:43 24° ENE 21:26:19 18° ESE
Envisat 3.1 21:26:18 13° SSE 21:30:46 63° ENE 21:35:49 10° N
Cosmos 1939 Rocket 2.7 21:29:41 14° SSE 21:32:53 77° ENE 21:36:49 10° N
APEX 4.3 21:32:03 21° SE 21:33:38 28° ESE 21:37:34 10° NE
SEDSat Delta rocket 4.2 21:30:48 10° SSW 21:33:55 19° SSE 21:34:25 19° SSE
Cosmos 1975 Rocket 3.9 21:31:44 10° NNE 21:35:40 33° ENE 21:37:35 23° ESE
Cosmos 1420 Rocket 4.2 21:36:33 10° S 21:41:33 47° ESE 21:46:33 10° NNE
Cosmos 2084 3.4 21:38:16 10° SW 21:42:07 70° NW 21:45:57 10° NNE
Atlas Centaur 2 2.4 21:39:56 10° WSW 21:42:47 22° S 21:43:28 21° S
Cosmos 1908 Rocket 3.6 21:38:53 10° S 21:43:16 84° W 21:47:43 10° N
Cosmos 2341 Rocket 4.0 21:38:52 10° S 21:45:08 69° E 21:51:21 10° NNE
Cosmos 1378 Rocket 3.4 21:43:15 10° N 21:47:34 74° E 21:50:13 23° SSE
ERS-1 Rocket 3.5 21:43:03 10° S 21:47:59 57° WSW 21:52:58 10° NNW
ARGOS 4.0 21:46:45 22° ESE 21:49:12 33° ENE 21:53:56 10° N
Cosmos 407 Rocket 3.9 21:46:03 10° NNW 21:51:16 63° WSW 21:55:35 15° S
ATLAS 5 CENTAUR R/B 3.6 21:46:55 10° NW 21:52:32 37° WSW 21:58:19 10° S
deb Chang Zheng 4 4.0 21:48:16 10° N 21:52:40 67° WNW 21:57:04 10° SSW
YAOGAN 6 3.0 21:53:07 36° ESE 21:53:56 43° ENE 21:57:18 10° N
H-2A R/B 3.7 21:53:53 17° E 21:55:37 20° ENE 21:59:23 10° NNE
Cosmos 1408 2.6 21:52:45 15° S 21:55:46 78° W 21:59:26 10° N
CZ-4 SHROUD 3.4 21:55:59 47° ESE 21:56:23 51° ENE 21:59:24 10° N
Cosmos 1140 Rocket 3.7 21:51:51 10° N 21:56:54 53° ENE 21:59:10 30° SE
Cosmos 1242 Rocket 3.0 21:54:50 10° N 21:58:21 42° ENE 21:58:57 39° ESE
UNK 4.4 21:52:21 10° NNE 21:58:29 63° ESE 22:03:30 14° S
SL-8 Rocket 4.2 21:54:45 21° SSE 21:58:45 51° E 22:04:45 10° NNE
Cosmos 962 Rocket 4.4 21:53:16 10° S 21:59:25 88° E 22:05:41 10° N
USA 245 3.7 21:59:05 34° E 21:59:28 35° ENE 22:03:02 10° N
Cosmos 1452 Rocket 4.1 21:54:50 10° SSW 22:00:00 58° WNW 22:05:12 10° N
PSLV R/B 2.9 22:00:22 62° ESE 22:00:36 66° ENE 22:03:32 10° N
Cosmos 1825 2.5 21:57:33 12° SSW 22:00:57 66° W 22:04:46 10° N
Timation 2 Rocket 4.2 21:55:43 10° NNW 22:01:34 52° ENE 22:04:20 29° ESE
Cosmos 1184 Rocket 3.3 22:06:04 22° SSW 22:07:59 59° W 22:11:18 10° N
CZ-4B R/B 3.4 22:04:19 10° NNE 22:09:10 56° E 22:11:04 34° SSE
SPOT 1/Viking Rocket 3.7 22:08:41 34° SE 22:10:46 59° ENE 22:15:54 10° N
Cosmos 2151 Rocket 4.1 22:10:45 37° ESE 22:11:09 38° E 22:15:22 10° NNE
H-2A R/B 3.0 22:09:43 18° SSW 22:12:35 44° W 22:16:39 10° NNW
Cosmos 2278 Rocket 2.7 22:07:51 10° SW 22:13:27 60° WNW 22:19:04 10° NNE
Cosmos 1833 Rocket 3.8 22:08:45 10° N 22:13:40 30° ENE 22:15:24 25° E
USA 234 3.7 22:08:55 10° ENE 22:14:50 36° SE 22:17:44 25° S
MetOp-A 4.2 22:15:24 28° S 22:18:17 77° WSW 22:23:40 10° NNW
Cosmos 1295 Rocket 4.5 22:13:37 16° S 22:18:52 90° W 22:25:11 10° N
ISS -1.0 22:18:40 10° W 22:21:28 26° NNW 22:24:16 10° NNE
Meteor 1-14 Rocket 4.1 22:23:46 30° S 22:26:41 79° E 22:32:17 10° NNE
Cosmos 864 Rocket 4.5 22:27:09 39° SSE 22:29:17 60° E 22:35:20 10° NNE
Terra 2.7 22:31:14 32° ENE 22:31:30 32° ENE 22:35:44 10° N
SL-08 RB Rocket 3.6 22:33:35 61° SE 22:34:15 73° ENE 22:38:54 10° N
Cosmos 1850 Rocket 3.9 22:29:19 10° NNW 22:34:40 89° ENE 22:36:03 51° SSE
Cosmos 2082 Rocket 2.4 22:29:49 10° NNW 22:35:26 58° ENE 22:36:43 47° ESE
Cosmos 1238 Rocket 4.4 22:32:40 10° NNW 22:35:36 28° W 22:37:02 21° SW
SPOT 5 4.1 22:34:18 22° SSW 22:37:18 42° W 22:42:23 10° NNW
Cosmos 2366 rocket 3.9 22:36:36 38° S 22:39:13 78° E 22:45:33 10° N
Okean 2 Rocket 4.5 22:40:02 16° SW 22:43:05 36° WNW 22:47:10 10° N
OAO 3 Rocket 3.9 22:42:37 10° WSW 22:46:04 40° SW 22:46:04 40° SW
Cosmos 2297 4.1 22:43:03 10° SSW 22:48:41 62° WNW 22:54:22 10° NNE
Lacrosse 5 4.1 22:56:43 12° ENE 22:56:43 12° ENE 22:57:10 10° ENE
CZ-4C R/B 3.7 22:55:37 59° N 22:55:37 59° N 22:59:01 10° N
Cosmos 1741 Rocket 4.2 22:49:54 10° NNW 22:55:03 61° WSW 22:55:59 52° SSW
NOAA 11 4.5 22:54:03 45° SSW 22:55:35 62° W 23:01:03 10° NNW
DMSP B5D2-2 4.0 22:51:13 10° NNE 22:56:18 62° E 22:56:18 62° E
Cosmos 1331 Rocket 4.0 23:02:16 65° ENE 23:02:16 65° ENE 23:06:59 10° NNE
USA 229 DEB 3.7 22:55:22 10° NNW 23:02:31 77° ENE 23:04:18 54° SE
USA 229 3.8 22:55:28 10° NNW 23:02:37 76° NE 23:04:24 54° SE
ASTEX 1 4.0 23:00:25 10° NNE 23:04:23 45° ENE 23:04:23 45° ENE
DELTA 2 DEB (DPAF) 4.3 23:07:32 70° WNW 23:07:32 70° WNW 23:11:43 10° NNW
Cosmos 1110 Rocket 3.8 23:08:24 83° SSW 23:08:37 88° WNW 23:13:51 10° NNE
CARTOSAT-1 4.0 23:12:58 60° NNW 23:12:58 60° NNW 23:16:33 10° NNW
Timation 1 Rocket 4.3 23:10:38 50° SSW 23:12:19 82° WNW 23:18:21 10° NNE
Cosmos 2369 Rocket 3.8 23:23:58 22° ENE 23:23:58 22° ENE 23:26:26 10° NE
Cosmos 1727 Rocket 4.3 23:18:15 10° NNW 23:24:18 59° W 23:25:30 50° SW
H-2A R/B 2.6 23:34:32 50° WSW 23:34:37 50° W 23:39:48 10° NNW
Cosmos 1486 Rocket 4.3 23:31:10 10° NNW 23:35:47 61° NNE 23:35:47 61° NNE
NOSS 3-1 (C) 4.2 23:43:30 10° NNW 23:51:06 65° NE 23:52:32 56° E
